#timestamp,LO_Frequency,Hit,StdDev 
1557460815.2,286047000.9,N
1557460835.9,286046999.1,N
1557460855.7,286046998.8,N
1557460875.6,286046998.2,N
1557460895.4,286047002.1,N
1557460915.3,286047000.0,N
1557460935.1,286047000.2,N
1557460936.0,286047000.2,N
1557460955.8,286046999.3,N
1557460975.7,286046996.8,N
1557460995.5,286046997.6,N
1557461015.4,286046997.2,N
1557461035.2,286046998.1,N
1557461055.0,286047001.2,N
1557461055.9,286047001.2,N
1557461075.8,286047001.0,N
1557461095.6,286047000.1,N
1557461115.4,286047000.6,N
1557461135.3,286046998.1,N
1557461155.1,286046998.9,N
1557461175.9,286046997.5,N
1557461195.7,286046997.8,N
1557461215.5,286046998.8,N
1557461235.4,286047000.7,N
1557461255.2,286047002.5,N
1557461275.0,286047001.9,N
1557461275.9,286047001.9,N
1557461295.8,286047003.9,N
1557461315.6,286047001.0,N
1557461335.5,286047000.4,N
1557461355.3,286047000.7,N
1557461375.1,286046999.9,N
1557461395.9,286047004.2,N
1557461415.7,286047001.9,N
1557461435.5,286047003.8,N
1557461455.4,286047000.3,N
1557461475.2,286046999.6,N
1557461495.1,286046996.7,N
1557461496.0,286046996.7,N
1557461515.8,286046997.4,N
1557461535.6,286046998.8,N
1557461555.5,286046996.9,N
1557461575.3,286046998.2,N
1557461595.1,286047001.1,N
1557461615.9,286047000.8,N
1557461635.7,286047002.6,N
1557461655.6,286047003.8,N
1557461675.4,286047002.8,N
1557461695.2,286047001.9,N
1557461715.1,286047003.9,N
1557461716.0,286047003.9,N
1557461735.8,286047002.8,N
1557461755.6,286047000.8,N
1557461775.5,286047001.1,N
1557461795.3,286047000.5,N
1557461815.2,286047001.3,N
1557461835.9,286047002.3,N
1557461885.8,286047001.9,E
1557461895.7,286047003.9,N
1557461915.5,286046998.1,P
1557461935.4,286046999.6,N
1557461955.2,286047000.8,N
1557461975.0,286047000.9,N
1557461975.9,286047000.9,N
1557461995.8,286047002.2,N
1557462015.6,286047004.4,N
1557462035.4,286047003.6,N
1557462055.3,286047002.6,N
1557462075.1,286047001.3,N
1557462095.9,286047000.1,N
1557462115.7,286047000.7,N
1557462135.5,286047002.5,N
1557462155.4,286047001.7,N
1557462175.2,286047000.3,N
1557462195.1,286047001.2,N
1557462196.0,286047001.2,N
1557462215.8,286047002.5,N
1557462235.6,286047000.0,N
1557462255.5,286046998.5,N
1557462275.3,286046998.8,N
1557462295.1,286046997.6,N
1557462315.9,286046997.6,N
1557462335.7,286046999.4,N
1557462355.6,286046998.8,N
1557462375.4,286047000.0,N
1557462395.2,286047000.5,N
1557462415.1,286047000.3,N
1557462416.0,286047000.3,N
1557462435.8,286047004.2,N
1557462455.7,286047003.7,N
1557462475.5,286047003.4,N
1557462495.3,286047002.4,N
1557462515.2,286047000.9,N
1557462535.0,286046999.9,N
1557462535.9,286046999.9,N
1557462555.8,286047001.3,N
1557462575.6,286047002.9,N
1557462595.4,286047001.7,N
1557462615.3,286047003.7,N
1557462635.1,286047003.0,N
1557462655.8,286047004.3,N
1557462675.7,286047004.4,N
1557462695.5,286047002.8,N
1557462715.4,286046998.7,N
1557462735.2,286046998.8,N
1557462755.0,286046998.4,N
1557462755.9,286046998.4,N
1557462775.8,286047000.9,N
1557462795.6,286047002.1,N
1557462815.4,286047002.3,N
1557462835.3,286047000.1,N
1557462855.1,286047002.4,N
1557462875.9,286047000.1,N
1557462895.7,286047011.9,Y
1557462915.5,286047001.1,P
1557462935.4,286046996.9,P
1557462955.2,286046997.0,N
1557462975.0,286046996.9,N
1557462975.9,286046996.9,N
1557462995.8,286046996.0,N
1557463015.6,286046993.6,Y
1557463035.5,286046996.6,P
1557463055.3,286046998.8,N
1557463075.1,286046996.9,P
1557463095.9,286046996.7,Y
1557463115.7,286046998.5,P
1557463135.5,286046998.7,N
1557463155.4,286046996.8,P
1557463175.2,286046996.9,Y
1557463195.1,286046998.4,P
1557463196.0,286046998.4,P
1557463215.8,286046998.7,P
1557463235.6,286046999.0,Y
1557463255.5,286047000.9,P
1557463275.3,286046998.8,N
1557463295.2,286046999.1,N
1557463315.9,286046999.3,N
1557463335.7,286046998.3,N
1557463355.6,286046998.7,N
1557463375.4,286046998.4,N
1557463395.2,286046998.4,N
1557463415.1,286046998.9,N
1557463416.0,286046998.9,N
1557463435.8,286046999.4,N
1557463455.7,286046998.4,N
1557463475.5,286046998.2,N
1557463495.3,286047000.8,N
1557463515.2,286047000.5,N
1557463535.0,286047000.4,N
1557463535.9,286047000.4,N
1557463555.8,286047002.6,N
1557463575.6,286047004.1,Y
1557463595.4,286047004.3,P
1557463615.3,286046999.9,N
1557463635.1,286047000.9,N
1557463655.8,286047000.2,N
1557463675.7,286047000.4,N
1557463695.5,286047001.2,N
1557463715.4,286046998.2,N
1557463735.2,286047000.5,N
1557463755.0,286047000.2,N
1557463755.9,286047000.2,N
1557463775.8,286047001.2,N
1557463795.6,286046999.3,N
1557463815.4,286046996.9,N
1557463835.3,286046996.5,N
1557463855.1,286046997.2,N
1557463875.9,286046998.5,N
1557463895.7,286047000.9,N
1557463915.5,286047001.6,N
1557463935.4,286047002.7,N
1557463955.2,286047002.0,N
1557463975.0,286047005.4,N
1557463975.9,286047005.4,N
1557463995.8,286047002.2,N
1557464015.6,286046999.8,N
1557464035.5,286047000.9,N
1557464055.3,286046999.8,N
1557464075.1,286047000.6,N
1557464095.9,286047002.3,N
1557464115.7,286046999.9,N
1557464135.6,286047000.7,N
1557464155.4,286047001.0,N
1557464175.2,286047002.6,N
1557464195.1,286047001.5,N
1557464196.0,286047001.5,N
1557464215.8,286047004.0,N
1557464235.6,286047002.5,N
1557464255.5,286047000.9,N
1557464275.3,286047001.1,N
1557464295.2,286046998.4,N
1557464315.9,286047000.0,N
1557464335.7,286046998.4,N
1557464355.6,286046998.6,N
1557464375.4,286046998.4,N
1557464395.2,286046998.3,N
